Regional Weather Roundup
Issued by NWS

Home | Current Version | Previous Version | Graphics & Text | Print | Product List | Glossary On
Versions: 1 2 3 4 5 6 7 8 9 10 11 12 13 14 15 16 17 18 19 20 21 22 23 24 25 26 27 28 29 30 31 32 33 34 35 36 37 38 39 40 41 42 43 44 45 46 47 48 49 50
000
ASUS45 KCYS 010210
RWRWY

WYOMING REGIONAL WEATHER ROUNDUP
NATIONAL WEATHER SERVICE CHEYENNE WY
700 PM MST SAT FEB 28 2015

NOTE:  "FAIR" INDICATES FEW OR NO CLOUDS BELOW 12,000 FEET
WITH NO SIGNIFICANT WEATHER AND/OR OBSTRUCTIONS TO VISIBILITY.

WYZ001-010300-
YELLOWSTONE NATIONAL PARK

CITY           SKY/WX    TMP DP  RH WIND       PRES   REMARKS
LK YELLOWSTONE   N/A     15   2  56 VRB3      29.86R
W YELLOWSTONE  NOT AVBL

$$
WYZ002>013-054>058-071-098>099-010300-
NORTHERN WYOMING

CITY           SKY/WX    TMP DP  RH WIND       PRES   REMARKS
JACKSON        CLEAR     18  10  73 CALM      29.84R
CODY           MOCLDY    16   7  67 N6        30.03R WCI   7
GREYBULL       CLOUDY    25   9  50 NW14      30.07R WCI  13
WORLAND        CLOUDY    24  12  60 NW5       30.05R WCI  18
SHERIDAN       FAIR      12   5  73 W7        30.12R WCI   1
BUFFALO        FAIR       8   3  80 NW7       30.05R WCI  -3
GILLETTE       MOCLDY    12   7  80 N5        30.08R WCI   4
HULETT         CLOUDY    18  10  73 NW3       30.10R
NEWCASTLE      FAIR      18   9  68 NW10G16   30.08R WCI   6

$$
WYZ014>020-022>026-101>103-010300-
CENTRAL WYOMING

CITY           SKY/WX    TMP DP  RH WIND       PRES   REMARKS
BIG PINEY      CLOUDY    22  13  68 NE9       29.84R WCI  12
PINEDALE       CLOUDY    18  12  79 CALM      29.85R
DUBOIS         LGT SNOW  12  10  92 SE12      29.88R WCI  -2
LANDER         CLOUDY    18   9  68 NW3       29.97R
RIVERTON       CLOUDY    19  10  68 NE5       29.99R WCI  12
CASPER         CLOUDY    18   8  65 NE12      30.00R WCI   5
DOUGLAS        FAIR      19  10  68 NE7       30.03R WCI  10

$$
WYZ021-027>030-104>119-010300-
SOUTHERN WYOMING

CITY           SKY/WX    TMP DP  RH WIND       PRES   REMARKS
EVANSTON       LGT SNOW  24  22  91 E6        29.80R FOG     WCI  17
FORT BRIDGER   LGT SNOW  26  22  85 E9        29.83R WCI  17
ROCK SPRINGS   CLOUDY    15   7  70 NE17G28   29.85R WCI  -1
DIXON          CLOUDY    32  17  54 CALM      29.81R
RAWLINS        MOCLDY    17   7  64 NE20G28   29.85R WCI   1
SARATOGA       CLOUDY    21  14  73 W13G20    29.82R WCI   9
LARAMIE        CLOUDY    15   9  76 SE18      29.85R WCI  -2
CHEYENNE       CLOUDY    20  11  68 E8        29.94R WCI  10
TORRINGTON     CLOUDY    26  12  55 NE9       30.04R WCI  17
PINE BLUFFS    MOCLDY    23  14  68 E3        30.01R

$$


USA.gov is the U.S. government's official web portal to all federal, state and local government web resources and services.